GEFSCGP_con_probscp_168.txt.gz
Probability
0 0 0 0 0 0 0 0 0 0 0 1 6 14 20 22 22 26 35 42 46 45 44 45 49 53 56 57 56 53 49 47 44 41 38 36 32 27 24 21 18 16 14 13
0 0 0 0 0 0 0 0 0 0 0 1 5 11 15 17 20 26 34 39 40 41 40 41 45 50 53 54 52 49 45 45 45 41 38 36 31 25 21 18 15 13 11 11
0 0 0 0 0 0 0 0 0 0 0 1 3 6 9 13 18 26 34 37 37 36 36 38 42 46 48 48 46 42 40 41 42 39 35 32 27 22 19 16 12 10 8 8
0 0 0 0 0 0 0 0 0 0 0 1 1 2 5 11 18 25 33 38 39 36 34 35 40 43 44 43 41 40 39 37 35 32 29 25 21 18 17 15 11 9 7 6
0 0 0 0 0 0 0 0 0 0 0 0 0 0 4 10 17 23 30 36 40 38 33 32 37 40 41 40 39 39 38 33 27 24 23 20 16 15 15 12 10 8 5 3
0 0 0 0 0 0 0 0 0 0 0 0 0 0 3 7 14 20 25 30 36 37 33 33 37 39 38 36 36 35 33 28 22 18 17 16 15 15 13 10 7 6 3 1
0 0 0 0 0 0 0 0 0 0 0 0 0 1 3 7 11 15 20 26 33 35 33 34 38 37 35 33 32 30 27 23 19 16 15 15 15 14 13 9 6 4 2 1
0 0 0 0 0 0 0 0 0 0 0 0 0 2 5 8 10 14 18 24 31 34 32 34 36 35 33 30 28 26 23 20 18 16 15 15 15 14 12 10 6 3 2 1
0 0 0 0 0 0 0 0 0 0 0 0 0 3 8 11 12 15 19 22 27 30 29 31 33 32 29 26 24 21 20 19 18 17 16 15 15 13 12 9 6 4 3 3
0 0 0 0 0 0 0 0 0 0 0 0 0 3 9 14 17 19 21 22 25 27 28 29 31 29 26 23 21 19 18 19 18 17 16 16 15 14 12 10 7 6 5 4
0 0 0 0 0 0 0 0 0 0 0 0 0 2 9 16 22 24 24 24 26 28 29 30 30 26 22 20 19 18 18 19 18 17 16 16 15 15 13 11 8 7 6 5
0 0 0 0 0 0 0 0 0 0 0 0 0 3 10 18 23 24 25 25 27 29 28 28 26 22 18 17 17 18 18 18 17 15 15 15 14 14 12 10 8 7 6 5
1 1 0 0 0 0 0 0 0 0 0 0 1 6 13 18 20 22 25 27 27 26 23 22 21 18 16 15 16 16 16 16 14 12 12 13 13 12 9 8 7 6 5 5
0 0 0 0 0 0 0 0 0 0 0 0 2 7 14 16 17 20 23 24 23 20 17 17 16 15 14 13 14 14 14 13 11 10 11 12 11 9 6 5 5 4 4 4
1 0 0 0 0 0 0 0 0 0 0 0 2 7 11 14 17 19 19 18 17 15 13 13 14 14 13 13 13 13 12 11 10 10 10 11 9 6 4 4 4 3 3 2
1 1 0 0 0 0 1 0 0 0 0 1 2 6 10 12 15 17 18 16 14 12 11 12 13 14 13 13 13 12 11 10 10 10 10 10 8 5 3 3 2 2 1 1
1 1 0 0 0 0 0 0 0 0 1 2 4 7 10 11 12 15 18 17 14 10 8 10 13 13 13 13 12 12 10 10 10 10 9 9 7 4 2 1 1 1 0 0
0 0 0 0 0 0 0 0 0 1 2 4 6 9 11 11 12 14 17 17 13 7 6 8 10 11 11 11 11 11 10 10 10 9 9 7 5 2 1 0 0 0 0 0
0 0 0 0 0 0 0 0 0 2 4 5 7 9 10 11 11 12 14 14 10 6 6 7 8 7 8 9 10 10 10 9 9 8 7 5 3 1 0 0 0 0 0 0
0 0 0 0 0 0 0 0 1 3 4 6 9 11 11 10 9 9 10 9 7 6 8 8 7 5 6 8 9 9 8 8 7 6 4 3 1 0 0 0 1 1 1 1
1 1 0 0 0 0 1 2 2 3 4 6 9 12 12 10 9 8 7 6 5 5 7 7 5 4 5 6 7 6 5 5 4 3 2 1 0 0 0 0 1 2 2 2
2 1 0 0 0 1 2 3 3 4 5 6 7 9 11 10 8 7 5 4 4 3 4 4 3 3 4 5 6 5 3 3 3 1 1 0 0 0 0 0 1 2 3 3
1 1 0 0 1 2 2 2 3 4 5 5 5 5 6 5 4 4 4 4 3 2 2 2 2 2 3 5 5 4 3 2 2 1 0 0 0 0 0 0 0 1 2 1
0 0 0 0 0 1 1 1 1 2 3 3 2 1 1 1 1 2 3 3 2 1 2 2 2 3 3 4 4 2 1 1 1 0 0 0 0 0 0 0 0 0 0 0
0 0 0 0 0 0 0 0 0 1 1 1 0 0 0 1 1 2 2 2 1 2 3 3 2 2 3 3 2 1 0 0 0 0 0 0 0 0 0 0 0 0 0 0
0 0 0 0 0 0 0 0 0 1 0 0 0 0 1 2 2 1 1 1 1 2 3 3 2 1 2 3 2 1 0 0 0 0 0 0 0 0 0 0 0 0 0 0

GEFSCGP_con_probscp_174.txt.gz
Probability
0 0 0 0 0 0 0 0 0 0 1 5 7 8 12 20 26 27 30 35 37 31 26 27 32 33 32 28 26 26 26 24 19 14 11 10 9 7 6 5 4 4 6 6
0 0 0 0 0 0 0 0 0 0 2 6 8 8 11 18 23 25 28 33 36 31 26 28 31 32 31 29 26 24 23 21 16 12 11 10 8 7 5 4 3 4 4 4
0 0 0 0 0 0 0 0 0 0 1 5 7 7 9 14 19 21 23 28 32 29 26 27 30 31 30 28 25 22 18 14 11 11 11 10 8 6 4 3 3 3 2 1
0 0 0 0 0 0 0 0 0 0 0 1 2 3 5 10 15 17 18 23 27 27 25 26 28 29 29 27 24 20 15 10 9 10 11 10 7 5 4 3 3 1 1 0
0 0 0 0 0 0 0 0 0 0 0 0 0 0 1 5 9 12 16 21 27 28 25 24 25 27 27 25 23 18 14 10 8 9 11 9 6 3 2 2 2 1 0 0
0 0 0 0 0 0 0 0 0 0 0 0 0 0 0 1 4 7 12 19 25 27 24 21 22 25 25 23 20 16 14 11 9 8 9 7 5 2 1 1 1 0 0 0
0 0 0 0 0 0 0 0 0 0 0 0 0 0 0 0 2 4 8 13 20 24 23 19 19 21 21 19 16 14 14 12 8 6 6 4 3 2 1 0 0 0 0 0
0 0 0 0 0 0 0 0 0 0 0 0 0 0 1 1 3 4 6 10 16 21 21 17 15 16 15 13 12 12 13 11 8 5 3 1 1 1 1 0 0 0 0 0
0 0 0 0 0 0 0 0 0 0 0 0 0 0 2 4 6 8 8 10 14 17 17 15 14 12 11 10 10 10 11 10 8 5 2 0 0 0 0 0 0 0 0 0
0 0 0 0 0 0 0 0 0 0 0 0 0 0 1 5 8 10 11 12 13 15 16 16 15 12 10 9 9 10 9 9 8 6 3 1 0 0 0 0 0 0 0 0
0 0 0 0 0 0 0 0 0 0 0 0 0 0 0 3 7 12 13 13 15 15 15 15 14 12 9 8 9 10 9 8 7 6 5 3 1 0 0 0 0 0 0 0
0 0 0 0 0 0 0 0 0 0 0 0 0 0 0 2 7 12 15 14 14 14 12 11 11 9 8 8 9 10 9 8 7 6 5 4 2 1 0 0 0 0 0 0
0 0 0 0 0 0 0 0 0 0 0 0 0 0 1 3 8 13 14 11 11 10 9 7 7 7 6 7 9 10 9 8 7 5 4 3 2 1 0 0 0 0 0 1
0 0 0 0 0 0 0 0 0 0 0 0 0 0 1 3 7 10 10 9 8 7 5 4 4 5 5 5 8 9 10 9 6 4 3 3 2 1 0 0 0 1 1 2
0 0 0 0 0 0 0 0 0 0 0 0 0 0 0 2 4 6 7 7 6 4 2 1 2 3 3 5 7 8 9 8 6 5 4 3 1 0 0 0 0 1 2 2
0 0 0 0 0 0 0 0 0 0 0 0 0 0 0 1 3 4 5 6 5 3 1 0 1 2 3 5 6 7 7 7 7 6 6 4 1 0 1 1 1 1 1 1
0 0 0 0 0 0 0 0 0 0 0 0 0 0 0 1 3 4 4 4 4 3 2 1 0 1 3 4 5 6 6 7 7 7 6 5 2 1 2 2 2 1 0 0
0 0 0 0 0 0 0 0 0 0 0 0 0 0 0 1 3 3 3 3 3 3 2 1 0 1 2 3 4 5 6 6 6 5 5 5 4 4 3 3 2 1 0 0
0 0 0 0 0 0 0 0 0 0 0 0 0 0 0 1 2 3 3 3 3 3 2 1 0 1 2 3 3 4 5 5 4 3 3 4 5 5 4 2 1 0 0 0
0 0 0 0 0 0 0 0 0 0 0 0 0 0 0 1 2 2 2 2 2 2 1 0 0 0 1 2 3 4 5 5 3 2 2 3 4 4 3 1 0 0 0 0
0 1 1 0 0 0 0 0 0 0 0 0 0 0 0 0 1 1 0 0 0 0 0 0 0 0 0 1 3 4 5 4 3 2 3 3 3 2 1 0 0 0 0 0
1 1 1 0 0 0 0 0 0 0 0 0 0 0 0 0 0 0 0 0 0 0 0 0 0 0 1 1 2 2 3 3 3 3 3 2 1 1 0 0 0 0 0 0
0 1 1 0 0 0 0 0 0 0 0 0 0 0 0 0 0 0 0 0 0 0 0 0 0 0 1 1 1 1 2 3 3 2 1 1 0 0 0 0 0 0 0 0
0 0 0 0 0 0 0 0 0 0 0 0 0 0 0 0 0 1 1 1 1 0 0 0 0 0 1 1 0 1 2 3 2 1 0 0 0 0 0 0 0 0 0 0
0 0 0 0 0 0 0 0 0 0 0 0 0 0 0 0 0 1 2 2 2 1 0 0 0 0 0 0 0 1 2 2 1 0 0 0 0 0 0 0 0 0 0 0
0 0 0 0 0 0 0 0 0 0 0 0 0 0 0 0 0 1 3 3 2 1 0 0 0 0 0 0 0 0 1 1 0 0 0 0 0 0 0 0 0 0 0 0

GEFSCGP_con_probscp_180.txt.gz
Probability
0 0 0 0 0 0 0 0 1 1 2 2 2 2 3 4 8 12 15 19 23 26 25 23 23 21 18 15 14 16 18 17 14 11 10 9 6 3 2 3 3 2 1 1
0 0 0 0 0 0 0 0 0 1 1 1 1 1 2 2 5 9 13 17 22 25 24 22 22 20 19 17 14 14 16 16 14 11 9 8 6 3 1 2 2 2 1 1
0 0 0 0 0 0 0 0 0 1 2 2 1 0 0 1 2 6 9 12 17 21 20 18 18 19 18 17 15 14 13 13 12 10 9 8 7 4 1 1 1 1 0 1
0 0 0 0 0 0 0 0 0 1 2 2 1 0 0 0 1 3 5 8 13 16 16 14 14 17 18 17 14 13 11 11 11 11 8 7 7 5 1 0 0 0 0 0
0 0 0 0 0 0 0 0 0 1 2 2 1 0 0 0 0 1 3 6 11 13 10 9 12 15 17 16 13 11 10 11 12 11 8 6 4 3 1 0 0 0 0 0
0 0 0 0 0 0 0 0 0 0 1 1 0 0 0 0 0 1 3 7 11 10 6 7 11 15 16 15 13 12 11 11 11 11 8 4 2 0 0 0 0 0 0 0
0 0 0 0 0 0 0 0 0 0 0 0 0 0 0 0 0 1 3 7 9 8 6 8 12 14 15 14 13 13 12 11 11 9 7 3 1 0 0 0 0 0 0 0
0 0 0 0 0 0 0 0 0 0 0 0 0 0 0 0 1 1 2 5 7 6 7 10 12 13 13 12 12 12 12 11 10 8 6 3 1 0 0 0 0 0 0 0
0 0 0 0 0 0 0 0 0 0 0 0 0 0 0 0 0 0 1 4 5 5 6 9 11 12 11 10 11 12 11 10 9 8 7 4 1 0 0 0 0 0 0 0
0 0 0 0 0 0 0 0 0 0 0 0 0 0 0 0 0 0 1 3 5 5 5 7 10 11 8 8 10 11 10 8 6 6 5 3 1 0 0 0 0 0 0 0
0 0 0 0 0 0 0 0 0 0 0 0 0 0 0 0 0 0 1 2 4 4 4 5 8 8 5 5 8 9 8 6 5 4 4 2 1 0 0 0 0 0 0 0
0 0 0 0 0 0 0 0 0 0 0 0 0 0 0 0 0 0 1 2 2 2 3 4 5 5 2 2 5 7 6 4 4 4 4 3 2 1 0 0 0 0 0 0
0 0 0 0 0 0 0 0 0 0 0 0 0 0 0 0 0 0 1 2 2 2 3 3 4 3 1 1 3 4 4 4 3 3 3 3 3 1 0 0 0 0 0 0
0 0 0 0 0 0 0 0 0 0 0 0 0 0 0 0 0 0 1 1 2 3 3 3 3 1 1 1 2 2 3 3 3 3 2 3 3 2 1 0 0 0 0 0
0 0 0 0 0 0 0 0 0 0 0 0 0 0 0 0 0 0 0 1 1 3 3 3 2 1 0 1 2 2 2 3 3 2 2 2 3 2 1 0 0 0 0 0
0 0 0 0 0 0 0 0 0 0 0 0 0 0 0 0 0 1 0 1 2 3 3 3 2 1 0 0 1 1 1 3 3 2 2 3 3 2 1 0 0 0 0 0
0 0 0 0 0 0 0 0 0 0 0 0 0 0 0 0 0 0 0 1 2 3 3 1 1 0 0 0 0 0 1 2 2 2 2 3 3 1 0 0 0 0 0 0
0 0 0 0 0 0 0 0 0 0 0 0 0 0 0 0 0 0 0 0 1 2 2 1 0 0 0 1 1 1 1 1 1 2 3 3 2 1 0 0 0 0 0 0
0 0 0 0 0 0 0 0 0 0 0 0 0 0 0 0 0 0 0 0 0 1 1 1 0 0 0 1 2 2 1 0 0 2 3 3 2 1 1 0 0 0 0 0
0 0 0 0 0 0 0 0 0 0 0 0 0 0 0 0 0 0 0 0 0 0 0 0 0 0 0 0 1 1 1 0 0 1 2 1 1 0 0 0 0 0 0 0
0 0 0 0 0 0 0 0 0 0 0 0 0 0 0 0 0 0 0 0 0 0 0 0 0 0 0 0 0 1 0 0 0 1 1 0 0 0 0 0 0 0 0 0
0 0 0 0 0 0 0 0 0 0 0 0 0 0 0 0 0 0 0 0 0 0 0 0 0 0 0 0 0 1 0 0 0 0 0 0 0 0 0 0 0 0 0 0
0 0 0 0 0 0 0 0 0 0 0 0 0 0 0 0 0 0 0 0 0 0 0 0 0 0 0 0 0 0 0 0 0 0 0 0 0 0 0 0 0 0 0 0
0 0 0 0 0 0 0 0 0 0 0 0 0 0 0 0 0 0 0 0 0 0 0 0 0 0 0 0 0 0 0 0 0 0 0 0 0 0 0 0 0 0 0 0
0 0 0 0 0 0 0 0 0 0 0 0 0 0 0 0 0 0 0 0 0 0 0 0 0 0 0 0 0 0 0 0 0 0 0 0 0 0 0 0 0 0 0 0
0 0 0 0 0 0 0 0 0 0 0 0 0 0 0 0 0 0 0 0 0 0 0 0 0 0 0 0 0 0 0 0 0 0 0 0 0 0 0 0 0 0 0 0

GEFSCGP_con_probscp_186.txt.gz
Probability
0 0 0 0 0 0 0 0 1 2 2 2 1 1 3 4 4 3 4 10 16 18 19 21 23 26 30 29 29 32 37 39 38 34 33 32 28 22 19 18 20 21 19 16
0 0 0 0 0 0 0 0 0 1 1 1 1 2 3 4 4 3 5 11 16 19 21 21 21 24 28 30 30 31 36 38 37 35 35 32 28 23 20 20 21 20 18 16
0 0 0 0 0 0 0 0 0 0 0 0 1 2 3 3 4 4 5 9 15 18 19 18 17 19 25 29 30 30 34 36 35 34 32 29 26 22 21 20 20 19 16 15
0 0 0 0 0 0 0 0 0 0 0 0 0 1 1 2 3 3 2 5 11 14 15 14 14 16 20 24 26 28 33 35 34 31 29 27 25 22 21 19 17 16 15 14
0 0 0 0 0 0 0 0 0 0 0 0 0 0 0 1 1 1 1 2 7 12 13 12 13 14 15 18 22 27 31 33 32 31 30 30 27 23 20 18 16 15 14 12
0 0 0 0 0 0 0 0 0 0 0 0 0 0 0 0 0 1 1 3 7 11 12 11 10 10 12 16 21 27 29 29 30 31 31 31 28 23 19 17 16 14 11 8
0 0 0 0 0 0 0 0 0 0 0 0 0 0 0 1 1 2 2 4 7 10 11 10 9 9 12 16 20 24 24 24 25 26 27 27 25 21 18 15 14 12 9 6
0 0 0 0 0 0 0 0 0 0 0 0 0 0 1 1 2 3 4 5 7 10 10 10 10 10 12 16 18 17 15 16 17 18 19 21 22 20 17 14 12 10 7 4
0 0 0 0 0 0 0 0 0 0 0 0 0 0 1 2 2 4 6 6 7 8 9 11 12 12 13 16 16 13 11 12 12 12 14 17 17 16 14 12 10 8 6 5
0 0 0 0 0 0 0 0 0 0 0 0 0 0 1 1 2 3 5 5 5 5 7 11 14 14 15 18 17 15 13 12 11 11 12 13 13 11 10 9 8 7 6 5
0 0 0 0 0 0 0 0 0 0 0 0 0 0 0 0 1 4 5 4 3 4 5 9 11 14 16 19 19 16 14 12 11 11 12 11 10 8 8 7 7 5 4 3
0 0 0 0 0 0 0 0 0 0 0 0 0 0 0 0 1 3 4 3 3 5 6 7 9 12 15 17 15 12 8 8 9 10 10 10 8 7 7 6 5 4 3 2
0 0 0 0 0 0 0 0 0 0 0 0 0 0 0 0 0 1 2 2 4 6 6 6 8 11 13 13 9 4 2 3 5 6 7 7 7 7 7 5 4 3 2 1
0 0 0 0 0 0 0 0 0 0 0 0 0 0 0 0 0 1 2 3 5 6 5 5 7 9 10 9 5 1 0 1 2 3 4 5 6 7 7 5 3 3 3 2
0 0 0 0 0 0 0 0 0 0 0 0 0 0 0 0 0 1 2 4 6 5 4 3 5 6 7 5 3 1 0 1 3 4 4 4 5 5 4 3 2 3 3 3
0 0 0 0 0 0 0 0 0 0 0 0 0 0 0 0 1 2 3 5 5 4 3 3 3 3 4 3 2 0 1 2 3 4 3 2 2 2 1 1 2 3 3 3
0 0 0 0 0 0 0 0 0 0 0 0 0 0 0 0 2 4 5 5 4 3 2 1 1 1 3 3 2 1 1 3 3 3 2 2 1 1 0 1 3 3 3 3
0 0 0 0 0 0 0 0 0 0 1 1 2 1 0 1 2 5 6 4 1 1 1 0 0 1 2 2 1 1 2 3 3 3 2 2 1 0 0 2 3 3 3 3
0 0 0 0 0 0 0 0 1 1 2 3 4 3 1 1 2 3 3 1 0 0 0 0 0 0 1 1 0 1 2 3 2 2 2 2 1 1 0 1 2 2 2 1
0 0 0 0 0 0 0 0 1 1 2 3 4 3 1 0 1 1 1 0 0 0 0 0 0 0 1 1 1 1 1 1 1 1 1 2 2 1 0 0 1 2 2 1
0 0 0 0 0 0 0 0 1 1 1 2 3 2 1 0 0 0 0 0 0 0 0 0 0 1 2 2 1 0 0 0 0 1 1 2 1 1 0 0 1 2 3 2
0 0 0 0 0 0 1 1 0 0 0 1 1 1 0 0 0 0 0 0 0 0 0 0 0 1 2 1 0 0 0 0 0 1 2 1 1 1 1 1 1 2 2 2
0 0 0 0 0 0 1 1 0 0 0 0 0 0 0 0 0 0 0 0 0 0 0 0 0 1 1 1 0 0 0 0 0 1 1 2 2 2 2 2 1 1 1 0
0 0 0 0 0 0 1 1 0 0 0 0 0 0 0 0 0 0 0 0 0 0 0 0 0 0 0 0 0 0 0 0 0 0 1 2 3 3 3 3 2 0 0 0
0 0 0 0 0 0 0 0 0 0 0 0 0 0 0 0 0 0 0 0 0 0 0 0 0 0 0 0 0 0 0 0 0 0 1 2 2 2 2 2 1 0 0 0
0 0 0 0 0 0 0 0 0 0 0 0 0 0 0 0 0 0 0 0 0 0 0 0 0 0 0 0 0 0 0 0 0 0 0 1 2 1 1 1 0 0 0 0

GEFSCGP_con_probscp_192.txt.gz
Probability
0 0 0 0 0 0 0 0 0 0 1 2 2 2 3 3 4 5 12 21 26 26 28 34 40 44 48 53 55 57 58 61 62 61 57 53 45 39 34 33 35 36 34 32
0 0 0 0 0 0 0 0 0 0 0 1 1 2 2 4 3 4 9 18 25 27 30 36 41 44 48 52 54 54 56 59 61 59 56 50 44 38 35 35 35 36 35 34
0 0 0 0 0 0 0 0 0 0 0 0 1 2 3 4 3 3 6 13 22 27 30 35 39 43 46 49 51 52 53 56 58 56 52 47 42 37 36 37 37 36 34 32
0 0 0 0 0 0 0 0 0 0 0 0 1 2 4 4 3 4 6 9 16 24 27 30 33 36 39 41 45 50 52 54 55 54 49 45 40 36 36 38 39 36 31 26
0 0 0 0 0 0 0 0 0 0 0 0 0 1 3 3 3 4 6 7 11 18 23 25 27 27 28 31 37 45 50 52 54 52 48 44 39 35 35 37 36 32 27 23
0 0 0 0 0 0 0 0 0 0 0 0 0 0 1 2 2 4 5 6 8 13 19 22 24 24 24 27 33 39 45 49 50 48 45 42 38 34 32 31 28 25 25 25
0 0 0 0 0 0 0 0 0 0 0 0 0 0 1 1 2 5 6 7 9 13 17 21 24 26 27 31 35 37 42 46 46 43 42 40 38 34 28 25 23 21 22 24
0 0 0 0 0 0 0 0 0 0 0 0 0 0 1 1 3 5 7 9 11 14 17 21 24 26 28 32 35 37 41 45 44 42 41 39 36 32 26 23 21 18 18 18
0 0 0 0 0 0 0 0 0 0 0 0 0 0 1 3 5 5 6 9 12 14 17 19 21 22 25 29 31 33 37 41 40 38 37 36 33 30 26 23 19 16 15 15
0 0 0 0 0 0 0 0 0 0 0 0 0 0 1 3 5 4 4 7 10 13 16 18 18 19 22 24 26 29 32 33 32 31 30 30 30 29 26 20 15 13 13 13
0 0 0 0 0 0 0 0 0 0 1 1 0 0 0 1 3 3 3 4 8 13 17 19 19 19 20 20 21 24 26 26 25 23 23 24 26 27 25 18 14 13 12 11
0 0 0 0 0 0 0 0 0 0 1 1 0 0 0 0 1 2 3 3 7 12 15 17 18 18 18 18 18 19 21 22 20 19 19 20 21 24 22 16 12 11 11 10
0 0 0 0 0 0 0 0 0 0 1 1 0 0 0 1 2 2 3 4 7 10 11 13 14 15 16 17 16 17 18 18 18 18 17 15 15 17 16 13 9 7 7 8
0 0 0 0 0 0 0 0 0 0 0 0 0 0 0 2 3 4 4 5 6 7 9 10 11 14 16 16 15 14 14 15 15 15 13 10 9 11 11 8 5 3 4 4
0 0 0 0 0 0 0 0 0 0 0 0 1 1 1 2 4 6 6 5 5 7 8 9 11 13 15 15 13 12 12 12 13 12 9 6 6 7 7 5 3 2 3 3
0 0 0 0 0 0 0 0 0 0 0 1 2 3 3 3 5 6 6 5 6 7 7 8 10 12 13 13 11 10 11 11 10 9 6 5 5 5 5 4 3 3 4 5
0 0 0 0 0 0 0 0 0 0 0 1 3 4 5 5 7 8 8 7 7 8 8 9 11 12 11 10 9 9 9 8 6 4 3 2 3 3 4 4 4 4 5 5
0 0 0 0 0 0 0 0 0 0 1 3 4 5 5 7 9 11 11 9 8 9 11 12 12 11 9 8 8 8 6 4 2 1 0 0 1 1 3 4 4 4 3 3
0 0 0 0 0 0 0 0 0 0 1 3 5 5 5 5 7 9 11 10 9 10 13 14 11 8 7 7 8 7 5 2 0 0 0 0 0 1 3 3 4 4 3 2
0 0 0 0 0 0 0 0 0 0 1 3 4 4 4 4 4 6 7 8 9 11 13 13 9 6 6 7 8 7 4 1 0 0 0 0 1 2 2 2 4 5 5 3
0 0 0 0 0 0 0 1 1 2 2 2 3 3 3 4 4 4 5 6 7 9 10 9 6 5 6 7 7 6 3 1 0 0 0 1 1 2 2 4 7 7 5 2
0 0 0 0 0 0 0 2 3 4 2 1 1 1 1 3 4 4 4 3 3 5 6 5 4 4 5 6 6 5 2 0 0 0 0 1 2 2 3 6 8 6 2 1
0 0 0 0 0 0 0 1 3 3 1 0 0 0 1 1 2 3 3 2 1 2 3 3 2 3 4 4 5 4 2 1 0 0 0 1 1 2 4 4 4 2 0 0
0 0 0 0 0 0 0 1 2 2 1 0 0 0 1 0 1 1 1 1 1 2 2 1 1 1 2 3 4 3 2 1 0 0 0 0 1 2 3 2 0 0 0 0
0 0 0 0 0 0 0 0 1 1 0 0 0 0 0 0 0 1 1 1 2 2 1 0 1 2 2 2 2 2 1 1 0 0 0 0 0 1 1 0 0 0 0 0
0 0 0 0 0 0 0 0 0 0 0 0 0 0 0 0 1 2 2 2 4 4 2 0 1 2 2 2 1 1 0 0 0 0 0 0 0 0 0 0 0 0 0 0

GEFSCGP_con_probscp_198.txt.gz
Probability
0 0 0 0 0 0 0 0 0 0 0 0 0 0 1 3 5 10 14 17 19 20 22 25 29 31 32 35 37 37 38 35 31 27 21 17 16 16 16 16 15 13 12 12
0 0 0 0 0 0 0 0 0 0 0 0 0 0 1 2 3 6 11 15 19 20 21 25 29 32 33 33 34 34 34 32 30 27 22 17 15 16 16 16 14 12 11 11
0 0 0 0 0 0 0 0 0 0 0 0 0 0 0 1 2 4 8 14 18 18 19 23 28 31 32 33 32 31 31 31 31 28 23 17 14 14 15 14 12 10 9 9
0 0 0 0 0 0 0 0 0 0 0 0 0 0 0 0 1 3 7 13 18 18 18 21 23 25 28 30 30 29 30 32 32 29 23 17 13 12 11 11 11 9 8 7
0 0 0 0 0 0 0 0 0 0 0 0 0 0 0 0 0 2 5 12 18 19 18 18 18 18 19 23 25 26 27 29 30 28 23 17 13 11 9 10 10 8 7 6
0 0 0 0 0 0 0 0 0 0 0 0 0 0 0 0 1 1 4 9 14 16 16 14 14 14 14 17 20 22 23 24 26 26 21 16 13 11 10 11 9 7 6 6
0 0 0 0 0 0 0 0 0 0 0 0 0 0 0 1 2 3 4 6 9 11 11 11 11 12 12 13 16 20 22 22 22 21 18 16 13 12 11 11 9 7 6 6
0 0 0 0 0 0 0 0 0 0 0 0 0 0 0 1 2 3 4 4 6 6 7 8 9 10 10 11 14 19 22 22 20 17 14 13 11 10 10 9 8 7 6 6
0 0 0 0 0 0 0 0 0 0 0 0 0 0 0 0 1 2 3 4 4 4 5 5 6 8 9 11 14 17 20 20 16 12 9 7 7 6 6 6 6 6 6 6
0 0 0 0 0 0 0 0 0 0 0 0 0 0 0 0 0 1 2 3 4 5 4 3 4 6 9 13 14 15 17 15 11 8 5 4 4 2 2 3 4 4 5 6
0 0 0 0 0 0 0 0 0 0 0 0 0 0 0 0 0 0 1 2 3 4 3 3 4 6 9 12 13 13 13 12 9 6 4 3 2 1 0 1 2 3 3 3
0 0 0 0 0 0 0 0 0 0 0 0 0 0 0 0 0 0 0 1 2 3 2 2 4 6 7 10 11 11 10 10 9 7 5 4 2 1 0 0 1 1 1 1
0 0 0 0 0 0 0 0 0 0 0 0 0 0 0 0 0 0 0 0 1 2 1 2 4 5 5 6 7 8 7 7 8 6 4 3 2 1 0 0 0 0 0 0
0 0 0 0 0 0 0 0 0 0 0 0 0 0 0 0 0 0 0 0 1 1 1 2 3 3 3 4 5 6 6 5 5 5 4 3 2 1 0 0 0 0 0 0
0 0 0 0 0 0 0 0 0 0 0 0 0 0 0 0 0 0 0 0 0 0 1 2 3 3 3 3 4 5 4 2 2 3 2 1 1 0 0 0 0 0 0 0
0 0 0 0 0 0 0 0 0 0 0 0 0 0 0 0 0 0 0 0 0 0 0 1 2 3 3 3 2 2 2 1 0 1 1 0 0 0 0 0 0 0 0 0
0 0 0 0 0 0 0 0 0 0 0 0 0 0 0 0 0 0 0 0 0 0 0 0 1 2 2 1 1 0 0 0 0 0 0 0 0 0 0 0 0 0 0 0
0 0 0 0 0 0 0 0 0 0 0 0 0 0 0 0 0 0 0 0 0 0 0 0 1 2 1 0 0 0 0 0 0 0 0 0 0 0 0 0 0 0 0 0
0 0 0 0 0 0 0 0 0 0 0 0 0 0 0 0 0 0 0 0 1 0 0 0 1 1 1 0 0 0 0 0 0 0 0 0 0 0 0 0 0 0 0 0
0 0 0 0 0 0 0 0 0 0 0 0 0 0 0 0 0 0 0 0 0 0 0 0 0 0 0 0 0 0 0 0 0 0 0 0 0 0 0 0 0 0 0 0
0 0 0 0 0 0 0 0 0 0 0 0 0 0 0 0 0 0 0 0 0 0 0 0 0 0 0 0 0 0 0 0 0 0 0 0 0 0 0 0 0 0 0 0
0 0 0 0 0 0 0 0 0 0 0 0 0 0 0 0 0 0 0 0 0 0 0 0 0 0 0 0 0 0 0 0 0 0 0 0 0 0 0 0 0 0 0 0
0 0 0 0 0 0 0 0 0 0 0 0 0 0 0 0 0 0 0 0 0 0 0 0 0 0 0 0 0 0 0 0 0 0 0 0 0 0 0 0 0 0 0 0
0 0 0 0 0 0 0 0 0 0 0 0 0 0 0 0 0 0 0 0 0 0 0 0 0 0 0 0 0 0 0 0 0 0 0 0 0 0 0 0 0 0 0 0
0 0 0 0 0 0 0 0 0 0 0 0 0 0 0 0 0 0 0 0 0 0 1 0 0 0 0 0 0 0 0 0 0 0 0 0 0 0 0 0 0 0 0 0
0 0 0 0 0 0 0 0 0 0 0 0 0 0 0 0 0 0 0 0 0 0 1 0 0 0 0 0 0 0 0 0 0 0 0 0 0 0 0 0 0 0 0 0

GEFSCGP_con_probscp_204.txt.gz
Probability
0 0 0 0 0 0 0 0 0 0 0 0 0 1 1 1 3 7 12 14 13 10 9 11 12 13 14 17 20 20 19 19 19 17 14 12 12 12 13 12 12 12 13 12
0 0 0 0 0 0 0 0 0 0 0 0 0 0 0 1 2 5 7 9 9 10 11 13 14 13 13 15 19 19 18 18 18 16 13 11 11 11 12 12 12 12 11 11
0 0 0 0 0 0 0 0 0 0 0 0 0 0 0 0 1 2 3 3 4 7 11 14 14 12 11 12 15 15 14 15 16 15 12 11 11 10 10 11 11 11 10 9
0 0 0 0 0 0 0 0 0 0 0 0 0 0 0 0 1 2 3 2 2 4 7 9 9 8 9 10 11 11 10 11 12 12 12 12 12 10 9 9 9 9 9 8
0 0 0 0 0 0 0 0 0 0 0 0 0 0 0 0 0 1 2 2 2 2 3 4 4 4 7 10 10 10 8 7 6 8 9 10 10 10 8 8 8 8 7 7
0 0 0 0 0 0 0 0 0 0 0 0 0 0 0 0 0 0 1 1 1 1 2 1 2 3 5 8 9 9 7 4 4 6 8 7 8 9 8 7 7 6 6 6
0 0 0 0 0 0 0 0 0 0 0 0 0 0 0 0 0 0 0 0 0 1 2 2 3 3 4 5 7 7 6 4 5 7 8 6 6 6 6 6 6 5 4 5
0 0 0 0 0 0 0 0 0 0 0 0 0 0 0 0 0 0 0 0 0 1 3 3 3 3 3 3 4 6 6 7 8 8 7 6 4 2 2 3 3 3 3 4
0 0 0 0 0 0 0 0 0 0 0 0 0 0 0 0 0 0 0 0 0 1 3 4 3 3 3 2 3 6 8 9 9 8 6 5 2 1 0 0 1 1 3 5
0 0 0 0 0 0 0 0 0 0 0 0 0 0 0 0 0 0 0 1 1 2 3 4 4 3 2 2 3 6 8 9 8 7 6 5 3 2 1 0 0 1 2 4
0 0 0 0 0 0 0 0 0 0 0 0 0 0 0 0 0 0 0 1 2 2 2 3 3 2 2 2 4 5 6 6 6 6 5 4 3 2 1 0 0 0 1 1
0 0 0 0 0 0 0 0 0 0 0 0 0 0 0 0 0 0 0 0 1 1 1 1 1 1 1 2 3 4 4 4 4 4 3 3 2 1 0 0 0 0 0 0
0 0 0 0 0 0 0 0 0 0 0 0 0 0 0 0 0 0 0 0 0 0 0 0 0 0 0 1 1 2 3 4 3 2 1 1 1 0 0 0 0 0 0 0
0 0 0 0 0 0 0 0 0 0 0 0 0 0 0 0 0 0 0 0 0 0 0 0 0 0 0 0 0 1 2 3 3 1 0 0 0 0 0 0 0 0 0 0
0 0 0 0 0 0 0 0 0 0 0 0 0 0 0 0 0 0 0 0 0 0 0 0 0 0 0 0 0 0 1 1 1 0 0 0 0 0 0 0 0 0 0 0
0 0 0 0 0 0 0 0 0 0 0 0 0 0 0 0 0 0 0 0 0 0 0 0 0 0 0 0 0 0 0 0 0 0 0 0 0 0 0 0 0 0 0 0
0 0 0 0 0 0 0 0 0 0 0 0 0 0 0 0 0 0 0 0 0 0 0 0 0 0 0 0 0 0 0 0 0 0 0 0 0 0 0 0 0 0 0 0
0 0 0 0 0 0 0 0 0 0 0 0 0 0 0 0 0 0 0 0 0 0 0 0 0 0 0 0 0 0 0 0 0 0 0 0 0 0 0 0 0 0 0 0
0 0 0 0 0 0 0 0 0 0 0 0 0 0 0 0 0 0 0 0 0 0 0 0 0 0 0 0 0 0 0 0 0 0 0 0 0 0 0 0 0 0 0 0
0 0 0 0 0 0 0 0 0 0 0 0 0 0 0 0 0 0 0 0 0 0 0 0 0 0 0 0 0 0 0 0 0 0 0 0 0 0 0 0 0 0 0 0
0 0 0 0 0 0 0 0 0 0 0 0 0 0 0 0 0 0 0 0 0 0 0 0 0 0 0 0 0 0 0 0 0 0 0 0 0 0 0 0 0 0 0 0
0 0 0 0 0 0 0 0 0 0 0 0 0 0 0 0 0 0 0 0 0 0 0 0 0 0 0 0 0 0 0 0 0 0 0 0 0 0 0 0 0 0 0 0
0 0 0 0 0 0 0 0 0 0 0 0 0 0 0 0 0 0 0 0 0 0 0 0 0 0 0 0 0 0 0 0 0 0 0 0 0 0 0 0 0 0 0 0
0 0 0 0 0 0 0 0 0 0 0 0 0 0 0 0 0 0 0 0 0 0 0 0 0 0 0 0 0 0 0 0 0 0 0 0 0 0 0 0 0 0 0 0
0 0 0 0 0 0 0 0 0 0 0 0 0 0 0 0 0 0 0 0 0 0 0 0 0 0 0 0 0 0 0 0 0 0 0 0 0 0 0 0 0 0 0 0
0 0 0 0 0 0 0 0 0 0 0 0 0 0 0 0 0 0 0 0 0 0 0 0 0 0 0 0 0 0 0 0 0 0 0 0 0 0 0 0 0 0 0 0

GEFSCGP_con_probscp_210.txt.gz
Probability
0 0 0 0 0 0 0 0 0 0 0 0 0 0 0 0 1 4 7 10 13 16 18 19 19 20 20 21 25 28 29 32 35 35 35 35 36 33 28 24 20 18 18 19
0 0 0 0 0 0 0 0 0 0 0 0 0 0 0 0 2 4 7 9 12 16 19 20 20 19 18 18 22 26 30 33 34 34 34 35 35 31 27 23 20 19 21 22
0 0 0 0 0 0 0 0 0 0 0 0 0 0 0 0 1 3 4 5 8 13 17 20 20 18 16 17 21 25 29 31 32 32 31 31 30 27 24 22 20 19 21 22
0 0 0 0 0 0 0 0 0 0 0 0 0 0 1 0 0 1 1 2 4 7 13 17 18 15 13 15 19 23 25 27 29 31 30 28 25 23 22 21 21 20 19 19
0 0 0 0 0 0 0 0 0 0 0 0 0 0 1 0 0 0 1 1 2 4 9 14 15 12 10 10 13 17 21 24 26 27 28 27 25 24 24 23 22 20 18 16
0 0 0 0 0 0 0 0 0 0 0 0 0 1 1 1 0 0 1 2 3 3 6 10 12 11 10 9 11 14 19 22 23 23 24 26 26 25 24 24 23 21 17 15
0 0 0 0 0 0 0 0 0 0 0 0 0 1 1 1 0 0 1 3 4 4 6 8 9 10 11 11 11 13 17 20 19 20 22 24 26 25 24 23 23 21 17 15
0 0 0 0 0 0 0 0 0 0 0 0 0 0 0 0 0 0 0 1 4 5 7 8 8 8 10 11 12 13 15 18 19 20 22 23 23 23 22 21 20 19 17 15
0 0 0 0 0 0 0 0 0 0 0 0 0 0 0 0 0 0 0 1 3 5 7 8 8 7 7 9 10 11 13 16 19 20 20 20 19 19 19 18 17 16 16 15
0 0 0 0 0 0 0 0 0 0 0 0 0 0 0 0 0 0 0 1 2 4 5 6 6 6 6 7 9 9 11 13 15 17 17 17 16 14 14 14 13 13 12 11
0 0 0 0 0 0 0 0 0 0 0 0 0 0 0 0 0 0 0 0 1 2 3 4 5 6 6 7 8 8 9 10 11 13 14 15 14 13 12 11 10 9 7 6
0 0 0 0 0 0 0 0 0 0 0 0 0 0 0 0 0 0 0 0 0 2 3 3 4 5 6 7 7 7 8 8 9 10 11 12 13 13 11 9 7 6 5 5
0 0 0 0 0 0 0 0 0 0 0 0 0 0 0 0 0 0 0 0 0 1 2 2 3 4 5 6 6 6 7 8 9 10 10 10 12 13 11 8 6 6 5 4
0 0 0 0 0 0 0 0 0 0 0 0 0 0 0 0 0 0 0 0 0 1 1 1 2 2 4 5 5 5 6 8 9 9 9 10 11 13 11 8 7 6 4 2
0 0 0 0 0 0 0 0 0 0 0 0 0 0 0 0 0 0 0 0 0 0 0 1 2 2 3 4 4 4 4 5 7 8 8 8 10 12 11 9 8 5 2 1
0 0 0 0 0 0 0 0 0 0 0 0 0 0 0 0 0 0 0 0 0 0 0 1 1 2 3 3 4 4 4 4 5 6 6 6 7 8 8 8 7 4 1 0
0 0 0 0 0 0 0 0 0 0 0 0 0 0 0 0 0 1 1 1 0 0 1 1 1 2 3 4 4 4 5 5 4 5 5 4 4 5 5 5 4 3 1 0
0 0 0 0 0 0 0 0 0 0 0 0 0 0 0 0 0 1 2 2 1 1 2 3 3 3 3 3 4 4 4 4 4 5 5 4 3 3 3 3 3 3 2 1
0 0 0 0 0 0 0 0 0 0 0 0 0 0 0 0 0 1 2 2 2 2 3 5 4 3 2 3 3 3 3 3 3 4 5 4 3 3 3 3 3 3 1 0
0 0 0 0 0 0 0 0 0 0 0 0 0 0 0 0 0 1 1 1 2 2 2 4 3 2 1 2 2 2 3 2 1 2 4 4 4 3 3 3 3 2 1 0
0 0 0 0 0 0 0 0 0 0 0 0 0 0 0 0 0 1 1 1 1 2 2 2 2 1 2 3 3 3 2 1 0 1 3 4 3 3 3 2 1 1 0 0
0 0 0 0 0 0 0 0 0 0 0 0 0 0 0 0 0 0 1 1 1 2 2 1 1 1 2 3 3 3 1 1 1 1 3 3 3 3 2 1 0 0 0 0
0 0 0 0 0 0 0 0 0 0 0 0 0 0 0 0 0 0 1 1 1 1 1 0 0 0 1 2 2 2 1 2 2 3 3 3 2 1 1 0 0 0 0 0
0 0 0 0 0 0 0 0 0 0 0 0 0 0 0 0 0 0 1 1 0 0 0 0 0 0 0 1 1 1 1 2 2 3 3 2 1 0 0 0 0 0 0 0
0 0 0 0 0 0 0 0 0 0 0 0 0 0 0 0 0 0 0 0 0 0 0 0 0 0 0 0 0 0 0 1 1 1 2 1 0 0 0 0 0 0 0 0
0 0 0 0 0 0 0 0 0 0 0 0 0 0 0 0 0 0 0 0 0 0 0 0 0 0 0 0 0 0 0 0 0 0 1 0 0 0 0 0 0 0 0 0

GEFSCGP_con_probscp_216.txt.gz
Probability
0 0 0 0 0 0 0 0 0 0 0 1 2 3 4 5 6 8 10 13 18 23 26 28 31 32 34 35 37 37 40 46 49 44 36 31 32 35 37 37 36 32 29 29
0 0 0 0 0 0 0 0 0 0 0 1 1 2 4 7 7 7 8 11 17 23 26 27 28 30 32 36 37 38 42 45 45 42 38 35 34 35 34 34 32 28 26 28
0 0 0 0 0 0 0 0 0 0 0 0 0 1 4 7 8 7 7 9 15 22 25 24 23 23 26 31 34 37 42 42 38 36 37 38 37 34 31 30 30 27 25 25
0 0 0 0 0 0 0 0 0 0 0 0 0 0 3 7 8 7 7 9 13 19 22 20 18 17 19 23 28 33 37 36 32 31 34 37 37 34 30 29 30 29 25 24
0 0 0 0 0 0 0 0 0 0 0 0 0 1 3 6 7 6 7 9 14 18 18 16 15 15 16 18 23 26 28 29 29 31 33 36 36 34 31 30 30 28 25 23
0 0 0 0 0 0 0 1 0 0 0 0 0 1 3 5 6 6 8 10 14 17 17 16 15 17 18 18 19 20 21 23 26 29 31 34 34 33 33 31 29 27 24 23
0 0 0 0 0 0 0 0 0 0 0 0 0 1 2 4 4 5 8 10 13 16 17 17 17 18 20 19 18 18 20 22 24 26 28 30 31 30 30 29 27 25 23 21
0 0 0 0 0 0 0 0 0 0 0 0 0 0 1 2 2 3 5 7 10 14 16 16 16 18 20 19 17 17 19 22 23 24 25 26 26 25 24 24 23 22 20 19
0 0 0 0 0 0 0 0 0 0 0 0 0 0 0 0 1 1 2 4 8 12 13 12 13 16 18 17 15 16 18 20 21 22 22 22 21 19 19 19 20 20 19 18
0 0 0 0 0 0 0 0 0 0 0 0 0 0 0 1 1 2 2 4 8 10 10 9 10 13 14 14 14 15 18 18 18 18 18 18 17 16 15 17 18 19 18 17
0 0 0 0 0 0 0 0 0 0 0 0 0 0 1 2 3 4 4 6 8 9 7 6 8 10 10 10 11 14 15 15 14 15 15 15 14 13 13 14 15 16 15 14
0 0 0 0 0 0 0 0 0 0 0 0 0 0 1 3 5 5 6 7 7 6 5 5 6 8 8 8 9 10 12 12 11 11 11 11 11 11 11 12 13 12 11 10
0 0 0 0 0 0 0 0 0 0 0 0 0 1 2 3 5 6 6 6 5 5 5 6 7 8 8 8 8 9 10 10 10 10 10 10 10 10 11 12 12 11 9 7
0 0 0 0 0 0 0 0 0 0 0 0 0 1 2 2 4 7 7 5 3 4 6 8 9 9 8 9 10 10 10 10 10 10 10 11 12 12 12 12 11 10 8 7
0 0 0 0 0 0 0 0 0 0 0 0 0 1 1 1 4 8 8 5 2 4 6 8 9 8 7 8 9 9 9 10 10 10 11 12 13 12 11 10 9 9 8 7
0 0 0 0 0 0 0 0 0 0 0 0 0 0 1 2 5 9 10 6 3 4 5 6 6 6 6 6 7 7 7 9 10 10 9 10 10 9 8 7 7 7 6 5
0 0 0 0 0 0 0 0 0 0 0 0 0 1 2 3 5 8 9 7 4 5 5 4 4 4 6 6 6 6 6 6 7 7 6 5 5 5 5 4 4 4 4 4
1 1 0 0 0 0 0 0 0 0 0 0 0 1 2 3 5 7 8 6 4 4 6 6 5 5 7 8 8 6 4 4 4 4 3 3 2 2 3 3 3 3 3 3
3 3 2 0 0 0 0 0 0 0 0 0 0 1 1 2 4 6 7 6 3 4 8 10 8 8 10 11 10 7 4 3 3 3 3 2 1 1 3 3 3 3 3 3
3 4 3 0 0 0 0 0 0 0 0 1 1 2 1 1 2 3 4 4 4 5 8 11 12 12 13 13 11 8 5 3 3 3 3 3 2 2 3 3 3 3 3 2
1 2 2 0 0 0 0 0 0 1 1 1 2 2 2 2 2 1 1 2 4 5 7 11 14 15 15 13 11 9 6 4 3 3 3 3 3 3 3 3 3 2 1 1
1 1 1 0 0 0 0 0 1 2 2 1 1 1 2 2 1 1 1 2 4 4 7 11 15 16 15 12 10 9 7 5 3 3 4 5 4 3 2 2 1 1 0 0
1 1 1 0 0 0 0 0 0 1 1 0 0 0 1 1 0 1 1 3 4 4 6 11 13 13 12 11 10 8 6 4 3 3 4 5 4 2 1 0 0 0 0 0
0 0 0 0 0 0 0 0 0 0 0 0 0 0 0 0 0 0 1 2 3 3 6 9 9 8 8 8 7 6 4 3 2 2 2 3 3 1 0 0 0 0 0 0
0 0 0 0 0 0 0 0 0 0 0 0 0 0 0 0 0 0 1 1 1 3 5 7 6 5 5 5 5 4 4 3 2 1 0 1 1 1 0 0 0 0 0 0
0 0 0 0 0 0 0 0 0 0 0 0 0 0 0 0 0 0 0 0 1 3 6 6 6 4 2 3 4 4 5 3 1 0 0 0 1 0 0 0 0 0 0 0

GEFSCGP_con_probscp_222.txt.gz
Probability
0 0 0 0 0 0 0 0 0 0 0 0 1 1 1 2 5 7 9 8 7 7 7 9 12 13 11 10 12 13 14 13 10 9 9 8 8 8 10 10 10 9 9 9
0 0 0 0 0 0 0 0 0 0 0 0 1 1 1 1 4 7 8 8 7 6 8 10 12 12 10 9 10 11 12 10 8 7 7 7 6 6 7 9 9 9 8 8
0 0 0 0 0 0 0 0 0 0 0 0 1 1 0 1 4 8 9 8 7 5 7 10 11 11 9 8 9 10 8 6 4 4 5 6 6 6 6 6 7 8 9 9
0 0 0 0 0 0 0 0 0 0 0 0 0 0 0 1 5 8 10 9 6 5 7 9 10 10 10 9 10 10 7 4 3 4 5 6 7 6 6 6 6 8 9 9
0 0 0 0 0 0 0 0 0 0 0 0 0 0 0 1 3 5 7 7 7 7 8 9 9 10 11 11 12 10 6 3 3 5 6 7 7 6 6 6 6 7 8 8
0 0 0 0 0 0 0 0 0 0 0 0 0 0 0 1 1 1 3 6 8 8 8 9 9 9 10 11 11 9 6 3 3 5 7 8 8 7 7 7 7 7 7 6
0 0 0 0 0 0 0 0 0 0 0 0 0 0 0 1 0 0 1 5 6 5 5 6 7 7 7 7 7 7 6 4 4 6 8 9 8 7 8 8 8 9 7 6
0 0 0 0 0 0 0 0 0 0 0 0 0 0 0 0 0 0 1 3 4 2 2 3 4 4 3 3 4 6 6 6 6 7 8 9 8 8 8 8 9 10 9 8
0 0 0 0 0 0 0 0 0 0 0 0 0 0 0 0 0 0 1 2 3 2 1 1 2 2 1 1 3 4 5 6 7 6 6 6 7 8 8 7 8 9 9 9
0 0 0 0 0 0 0 0 0 0 0 0 0 0 0 0 0 0 0 1 3 2 1 0 0 1 1 2 3 3 5 7 7 6 5 5 7 8 8 7 7 7 6 6
0 0 0 0 0 0 0 0 0 0 0 0 0 0 0 0 0 0 0 1 2 2 1 0 0 0 1 1 3 4 5 7 6 6 5 5 6 7 7 6 6 5 3 3
0 0 0 0 0 0 0 0 0 0 0 0 0 0 0 0 0 0 0 0 1 1 1 1 1 0 0 1 3 5 5 6 5 4 4 5 5 5 5 5 4 4 3 2
0 0 0 0 0 0 0 0 0 0 0 0 0 0 0 0 0 0 0 1 2 2 2 2 2 1 1 1 3 4 4 4 4 4 4 4 4 4 4 3 3 3 3 3
0 0 0 0 0 0 0 0 0 0 0 0 0 0 0 0 0 0 0 1 3 4 3 2 1 1 1 2 3 3 3 3 4 4 4 3 3 2 2 1 1 2 2 2
0 0 0 0 0 0 0 0 0 0 0 0 0 0 0 0 0 0 1 3 5 5 3 1 0 1 1 2 2 3 3 3 3 4 3 3 1 1 0 0 0 1 1 1
0 0 0 0 0 0 0 0 0 0 0 0 0 0 1 1 0 0 2 3 5 5 3 1 0 0 0 1 1 2 3 3 3 3 3 2 1 0 0 0 0 0 0 0
0 0 0 0 0 0 0 0 0 0 0 0 0 1 2 2 1 0 1 2 4 3 1 0 0 0 0 0 0 1 2 2 2 2 2 1 0 0 0 0 0 0 0 0
0 0 0 0 0 0 0 0 0 0 0 0 1 2 2 2 1 0 0 1 2 2 1 0 0 0 0 0 0 0 1 1 1 1 1 0 0 0 0 0 0 0 0 0
0 0 0 0 0 0 0 0 0 0 0 1 1 2 1 1 0 0 0 0 1 1 0 0 0 0 0 0 0 0 0 0 0 0 0 0 1 1 0 0 0 0 0 0
0 0 0 0 0 0 0 0 0 0 1 1 1 1 0 0 0 0 0 0 0 0 0 0 0 0 0 0 0 0 0 0 0 0 0 0 1 1 0 0 0 0 0 0
0 0 0 0 0 0 0 0 0 0 0 0 0 0 0 0 0 0 0 0 0 0 0 0 0 0 0 0 0 0 1 0 0 0 1 1 1 1 0 0 0 0 0 0
0 0 0 0 0 0 0 0 0 0 0 0 0 0 0 0 0 0 0 0 0 0 0 0 0 0 0 0 0 0 0 0 0 1 2 2 1 0 0 0 0 0 0 0
0 0 0 0 0 0 0 0 0 0 0 0 0 0 0 0 0 0 0 0 0 0 0 0 0 0 0 0 0 0 0 0 0 1 2 3 2 0 0 0 0 0 0 0
0 0 0 0 0 0 0 0 0 0 0 0 0 0 0 0 0 0 0 0 0 0 0 0 0 0 0 0 0 0 0 0 0 0 1 2 1 0 0 0 0 0 0 0
0 0 0 0 0 0 0 0 0 0 0 0 0 0 0 0 0 0 0 0 0 0 0 0 0 0 0 0 0 0 0 0 0 0 1 1 1 0 0 0 0 0 0 0
0 0 0 0 0 0 0 0 0 0 0 0 0 0 0 0 0 0 0 0 0 0 0 0 0 0 0 0 0 0 0 0 0 0 0 1 1 1 0 0 0 0 0 0

GEFSCGP_con_probscp_228.txt.gz
Probability
0 0 0 0 0 0 0 0 0 0 1 1 0 0 1 3 4 3 1 0 0 0 0 1 1 2 3 4 7 11 12 13 11 8 7 7 7 5 4 4 5 5 6 7
0 0 0 0 0 0 0 0 0 1 2 2 1 0 1 2 2 1 0 0 0 0 1 2 3 3 3 4 7 10 11 10 8 6 5 5 4 4 4 3 3 4 4 5
0 0 0 0 0 0 0 0 0 1 2 2 1 0 1 1 1 0 0 1 1 2 4 5 5 5 5 5 7 10 9 6 4 4 3 2 2 3 3 3 3 3 3 3
0 0 0 0 0 0 0 0 0 0 1 1 0 0 1 1 2 1 1 2 3 4 6 7 6 6 6 5 6 7 7 4 3 2 2 1 1 2 3 3 3 3 3 3
0 0 0 0 0 0 0 0 0 0 0 0 0 0 0 1 2 1 1 2 2 3 5 7 7 6 5 4 4 5 5 3 1 1 1 0 0 2 3 3 3 3 2 1
0 0 0 0 0 0 0 0 0 0 0 0 0 0 0 1 1 1 0 1 1 1 2 4 6 6 5 4 4 4 3 1 0 0 0 0 1 2 3 3 3 3 2 1
0 0 0 0 0 0 0 0 0 0 0 0 0 0 0 0 0 0 0 0 0 0 0 2 4 4 4 5 4 3 1 0 0 0 0 0 1 2 3 3 2 2 2 1
0 0 0 0 0 0 0 0 0 0 0 0 0 0 0 0 0 0 0 0 0 0 0 0 1 1 2 3 3 1 0 0 0 0 0 1 1 2 2 1 1 2 2 1
0 0 0 0 0 0 0 0 0 0 0 0 0 0 0 0 0 0 0 0 0 0 0 0 0 0 0 1 1 0 0 0 0 0 1 2 2 2 1 1 1 2 1 0
0 0 0 0 0 0 0 0 0 0 0 0 0 0 1 0 0 0 0 0 0 0 0 0 0 0 0 0 0 0 0 0 0 0 1 2 2 1 1 1 2 2 2 1
0 0 0 0 0 0 0 0 0 0 0 0 0 0 0 0 0 0 0 0 0 0 0 0 0 0 0 0 0 0 0 0 0 0 0 1 1 0 0 1 2 2 3 3
0 0 0 0 0 0 0 0 0 0 0 0 0 0 0 0 0 0 0 0 0 0 0 0 0 0 0 0 0 0 0 0 0 0 0 0 0 0 0 0 1 1 2 3
0 0 0 0 0 0 0 0 0 0 0 0 0 0 0 0 0 0 0 0 0 1 1 0 0 0 0 0 0 0 0 0 0 0 0 0 0 0 0 0 0 0 1 1
0 0 0 0 0 0 0 0 0 0 0 0 0 0 0 0 0 0 0 0 1 2 2 1 0 0 0 0 0 0 0 0 0 0 0 0 0 0 0 0 0 0 0 0
0 0 0 0 0 0 0 0 0 0 0 0 0 0 0 0 0 0 0 0 1 2 2 1 0 0 0 0 0 0 0 0 0 0 0 0 0 0 0 0 0 0 0 0
0 0 0 0 0 0 0 0 0 0 0 0 0 0 0 0 0 0 0 0 1 2 2 1 0 0 0 0 0 0 0 0 0 0 0 0 0 0 0 0 0 0 0 0
0 0 0 0 0 0 0 0 0 0 0 0 0 0 0 0 0 0 0 0 1 2 2 1 0 0 0 0 0 0 0 0 0 0 0 1 1 1 0 0 0 0 0 0
0 0 0 0 0 0 0 0 0 0 0 0 0 0 0 0 0 0 0 0 0 1 1 0 0 0 0 0 0 0 0 0 0 0 1 2 2 2 1 0 0 0 0 0
0 0 0 0 0 0 0 0 0 0 0 0 0 0 0 0 0 0 0 0 0 0 0 0 0 0 0 0 0 0 0 0 0 0 1 2 2 2 1 0 0 0 0 0
0 0 0 0 0 0 0 0 0 0 0 0 0 0 0 0 0 0 0 0 0 0 0 0 0 0 0 0 0 0 0 0 0 0 1 1 1 1 0 0 0 0 0 0
0 0 0 0 0 0 0 0 0 0 0 0 0 0 0 0 0 0 0 0 0 0 0 0 0 0 0 0 0 0 0 0 0 0 0 0 0 0 0 0 0 0 0 0
0 0 0 0 0 0 0 0 0 0 0 0 0 0 0 0 0 0 0 0 0 0 0 0 0 0 0 0 0 0 0 0 0 0 0 0 0 0 0 0 0 0 0 0
0 0 0 0 0 0 0 0 0 0 0 0 0 0 0 0 0 0 0 0 0 0 0 0 0 0 0 0 0 0 0 0 0 0 0 0 0 0 0 0 0 0 0 0
0 0 0 0 0 0 0 0 0 0 0 0 0 0 0 0 0 0 0 0 0 0 0 0 0 0 0 0 0 0 0 0 0 0 0 0 0 0 0 0 0 0 0 0
0 0 0 0 0 0 0 0 0 0 0 0 0 0 0 0 0 0 0 0 0 0 0 0 0 0 0 0 0 0 0 0 0 0 0 0 0 0 0 0 0 0 0 0
0 0 0 0 0 0 0 0 0 0 0 0 0 0 0 0 0 0 0 0 0 0 0 0 0 0 0 0 0 0 0 0 0 0 0 0 0 0 0 0 0 0 0 0

GEFSCGP_con_probscp_234.txt.gz
Probability
0 0 0 0 0 0 0 0 0 0 1 2 3 3 2 2 2 2 1 2 4 7 13 19 22 22 23 25 29 32 32 31 30 28 25 22 18 16 13 12 14 17 16 15
0 0 0 0 0 0 0 0 0 0 0 1 3 3 3 2 3 3 3 4 4 6 10 16 18 19 20 22 25 27 27 26 25 25 23 20 18 16 13 11 12 14 14 13
0 0 0 0 0 0 0 0 0 0 0 1 2 3 3 4 5 6 6 5 4 4 8 12 13 13 15 17 19 20 21 20 19 19 18 17 17 15 11 9 9 10 11 11
0 0 0 0 0 0 0 0 0 0 0 0 1 2 3 5 6 7 6 5 3 3 6 9 10 11 14 15 15 16 17 17 15 14 14 14 13 11 9 8 9 10 11 11
0 0 0 0 0 0 0 0 0 0 0 0 0 1 3 4 6 7 6 4 1 2 4 7 10 13 14 14 15 15 16 16 14 12 10 11 10 8 8 10 12 12 11 11
0 0 0 0 0 0 0 0 0 0 0 0 0 1 2 4 5 5 4 2 1 1 3 6 11 15 16 15 15 15 15 14 13 11 10 9 9 8 11 16 16 13 10 9
0 0 0 0 0 0 0 0 0 0 0 0 0 1 2 2 3 3 3 1 0 1 2 5 10 15 18 18 16 14 14 13 13 11 11 11 11 11 14 16 15 11 8 7
0 0 0 0 0 0 0 0 0 0 0 0 0 0 1 1 1 2 2 1 1 1 2 3 8 13 17 17 15 14 13 13 13 13 13 13 12 12 12 12 11 9 7 6
0 0 0 0 0 0 0 0 0 0 0 0 0 0 0 0 0 1 1 0 1 2 2 2 5 10 13 14 14 13 14 14 13 13 13 12 11 10 10 10 9 7 7 6
0 0 0 0 0 0 0 0 0 0 0 0 0 0 1 0 0 0 0 0 1 2 3 3 4 6 9 11 10 10 12 13 12 10 10 8 8 9 10 9 8 7 7 7
0 0 0 0 0 0 0 0 0 0 0 0 0 0 0 0 0 0 0 1 2 3 4 4 3 4 6 7 6 6 7 9 9 7 7 7 6 8 9 9 8 7 7 8
1 0 0 0 0 0 0 0 0 0 0 0 0 0 0 0 0 0 1 2 3 4 3 3 2 3 4 4 4 4 4 5 4 4 5 5 5 5 7 8 8 8 8 7
2 1 0 0 0 0 0 0 0 0 0 0 0 0 0 0 1 1 2 4 4 3 3 2 3 3 3 2 2 3 2 2 1 1 1 2 3 3 4 6 8 9 8 8
3 2 0 0 0 0 0 0 0 0 0 0 0 0 0 1 2 3 3 4 3 2 2 3 3 3 3 2 2 2 1 0 0 0 1 1 1 2 3 5 8 9 9 9
2 1 0 0 0 0 0 0 0 0 0 0 0 0 1 2 3 3 3 3 2 2 3 4 4 4 3 1 1 1 1 0 0 1 1 2 2 3 4 6 8 9 9 9
2 1 0 0 0 0 0 0 0 0 0 0 0 1 2 2 3 3 3 3 3 4 5 6 6 5 3 1 0 0 0 0 1 1 1 2 2 3 5 7 9 9 8 7
1 0 0 0 0 0 0 1 1 1 0 1 1 2 3 3 3 3 3 2 3 4 6 6 6 5 3 1 0 0 0 0 0 0 0 2 3 4 5 7 7 7 5 4
0 0 0 0 0 0 1 2 2 2 2 2 3 3 4 4 3 2 2 1 1 3 5 5 4 3 1 0 0 0 0 0 0 0 1 2 4 5 6 6 6 5 4 4
0 0 0 0 0 0 1 1 2 2 3 2 2 3 3 3 3 3 2 1 1 2 3 3 2 1 0 0 0 0 0 0 0 0 1 3 5 5 5 4 4 4 4 4
0 0 0 0 0 0 0 0 1 2 2 1 1 1 3 4 4 3 2 2 1 1 1 1 1 0 0 0 0 0 1 1 1 0 0 2 3 4 4 3 3 3 3 3
0 0 0 0 0 0 0 0 0 1 1 1 0 1 2 4 4 3 1 1 1 0 0 0 0 0 0 0 0 0 1 1 1 0 0 0 1 2 3 3 3 3 2 1
0 0 0 0 0 0 0 0 0 0 0 0 0 0 1 3 3 1 0 0 0 0 0 0 0 0 0 0 0 0 1 1 0 0 0 0 0 1 1 3 3 3 2 1
0 0 0 0 0 0 0 0 0 0 0 0 0 0 0 1 1 0 0 0 0 0 0 0 0 0 0 0 0 0 0 0 1 1 1 0 0 0 1 2 3 3 2 1
0 0 0 0 0 0 0 0 0 0 0 0 0 0 0 0 0 0 0 0 0 0 0 0 0 0 0 0 0 0 0 1 2 2 2 1 0 0 0 1 1 2 2 2
0 0 0 0 0 0 0 0 0 0 0 0 0 0 0 0 0 0 0 0 0 0 1 1 1 0 0 0 0 0 1 2 3 3 3 2 1 0 0 0 0 1 2 2
0 0 0 0 0 0 0 0 0 0 0 0 0 0 0 0 0 0 0 0 0 0 1 2 2 1 0 0 1 1 1 2 3 3 3 2 1 0 0 0 0 0 1 1

GEFSCGP_con_probscp_240.txt.gz
Probability
0 0 0 0 0 0 0 0 0 0 1 2 2 2 5 6 5 5 7 10 13 16 20 23 25 28 33 40 43 45 46 47 47 46 46 43 37 30 24 19 16 17 19 19
0 0 0 0 0 0 0 0 0 0 1 2 2 3 6 6 4 5 9 12 13 15 19 23 24 25 30 37 41 43 45 47 47 46 44 41 35 28 21 17 16 17 18 18
0 0 0 0 0 0 0 0 0 0 0 1 1 3 6 8 6 5 9 13 14 13 17 20 22 24 28 34 38 41 44 45 45 44 42 38 32 24 19 16 15 16 16 16
0 0 0 0 0 0 0 0 0 0 0 0 1 2 6 9 8 7 8 11 11 11 12 15 18 22 26 30 35 40 42 43 41 40 37 34 27 21 18 17 16 16 16 16
0 0 0 0 0 0 0 0 0 0 0 0 0 1 5 8 10 9 8 8 9 10 10 13 16 19 21 26 32 38 41 40 38 35 33 30 24 20 18 17 16 17 18 18
0 0 0 0 0 0 0 0 0 0 0 0 0 1 5 9 10 9 8 9 10 11 11 12 15 17 19 22 28 34 38 39 37 33 30 27 23 19 18 16 16 18 19 19
0 0 0 0 0 0 0 0 0 0 0 0 0 2 5 8 8 7 7 9 11 12 11 11 14 17 17 19 24 29 33 36 35 31 27 24 22 19 18 18 17 17 17 17
0 0 0 0 0 0 0 0 0 0 0 1 1 3 5 5 5 5 5 7 8 9 10 11 14 16 16 18 22 27 29 30 29 28 24 22 21 19 18 18 18 16 14 13
0 0 0 0 0 0 0 0 0 0 0 1 2 4 5 4 3 4 5 5 5 6 8 11 13 15 15 17 23 27 27 26 25 25 23 21 20 20 19 17 16 13 12 12
0 0 0 0 0 0 0 0 0 0 0 1 2 4 6 5 4 5 6 6 5 4 7 10 11 13 13 14 19 23 24 22 22 22 21 20 20 19 18 16 14 12 12 12
0 0 0 0 0 0 0 0 0 0 0 1 1 3 4 4 4 4 6 6 5 5 6 8 9 11 11 11 12 16 19 19 18 17 17 19 20 19 18 17 15 13 12 12
0 0 0 0 0 0 0 0 0 0 0 1 1 3 3 4 4 5 5 5 4 4 5 7 8 10 10 10 11 12 14 15 14 14 16 20 21 19 17 16 15 13 12 11
0 0 0 0 0 0 0 0 0 0 0 1 2 3 3 4 5 6 5 3 2 4 6 8 10 11 11 11 11 11 11 11 11 11 15 18 19 18 15 13 12 12 10 10
1 1 1 0 0 0 0 0 0 0 0 1 2 3 4 5 6 5 3 2 2 4 6 8 10 11 12 11 10 10 9 8 7 8 11 13 14 14 11 10 10 10 9 9
1 2 2 1 0 0 0 0 0 0 0 1 3 4 5 6 7 5 4 3 4 5 6 7 9 10 11 10 10 10 9 7 6 6 7 8 9 9 9 9 9 8 7 7
2 2 3 2 1 1 0 0 0 0 0 1 3 5 5 5 7 7 6 6 6 7 6 7 9 10 10 10 9 9 9 7 6 6 6 7 7 7 8 8 7 6 6 6
3 4 3 2 2 2 1 0 0 0 1 2 4 5 5 5 6 7 7 7 7 7 8 9 10 10 10 11 11 10 8 7 6 6 6 7 7 7 7 7 6 6 7 7
6 6 4 2 1 1 1 0 0 1 2 4 5 4 4 4 5 6 7 7 7 7 7 9 10 10 10 12 12 10 7 6 6 6 6 7 7 7 8 8 7 8 8 8
9 8 4 1 0 0 0 0 0 1 3 4 4 2 1 2 2 3 4 5 5 5 5 7 7 7 9 11 11 9 6 4 4 4 5 6 8 9 10 10 10 9 8 7
8 7 3 0 0 0 0 0 1 1 1 2 2 1 0 1 1 1 1 2 3 3 4 5 5 6 8 9 8 7 5 4 3 3 4 5 8 11 12 12 11 9 7 6
4 3 1 0 0 0 1 2 3 3 2 1 1 1 1 1 1 1 0 0 1 2 3 5 6 8 9 8 6 5 5 5 4 3 4 5 8 10 11 11 10 8 6 5
1 1 1 2 2 2 3 4 6 7 5 3 3 3 2 1 0 0 0 0 1 1 2 4 5 7 9 7 4 4 6 6 4 4 5 6 7 8 8 8 8 8 5 4
1 2 3 3 3 3 4 4 5 6 4 4 4 4 2 1 0 0 0 0 0 0 1 3 4 5 7 6 4 5 7 7 6 5 6 6 6 6 6 6 5 6 5 3
1 2 3 4 4 3 3 2 2 2 1 2 2 2 1 1 1 1 0 0 0 0 1 2 3 4 5 5 5 7 7 7 7 6 6 6 6 6 6 5 4 4 3 2
2 2 4 6 6 5 2 1 0 0 0 0 0 0 0 0 0 1 1 1 0 0 0 1 3 5 6 6 7 8 8 8 7 7 6 6 6 6 6 5 4 3 3 3
1 3 6 8 8 7 4 1 0 0 0 0 0 0 0 0 0 1 2 2 1 0 0 1 4 6 7 7 7 9 9 8 8 7 6 6 6 6 6 6 4 3 3 3

GEFSCGP_con_probscp_246.txt.gz
Probability
0 0 0 0 0 0 0 0 0 1 3 3 2 1 1 4 7 7 4 4 4 3 3 3 4 6 9 9 9 11 12 13 13 12 10 9 8 8 6 5 5 6 5 5
0 0 0 0 0 0 0 0 0 2 3 2 1 1 3 5 7 6 5 5 4 3 2 3 4 6 8 8 9 11 13 13 13 12 10 9 8 8 5 3 3 5 5 4
0 0 0 0 0 0 0 0 0 1 2 1 1 1 3 5 6 6 6 6 5 3 3 4 6 7 8 9 9 11 12 13 12 11 10 9 8 6 3 1 1 3 3 2
0 0 0 0 0 0 0 0 0 1 1 1 0 1 2 4 6 7 7 6 6 5 6 9 10 9 9 9 9 10 12 13 12 11 10 10 8 4 1 0 0 1 1 1
0 0 0 0 0 0 0 0 0 0 0 0 0 1 2 3 4 6 6 6 7 7 9 12 12 10 10 10 9 10 12 13 12 10 10 11 9 5 3 1 0 0 1 2
0 0 0 0 0 0 0 0 0 0 0 0 0 1 2 3 3 4 5 6 7 7 9 11 11 11 11 10 9 10 12 11 11 10 9 9 8 6 5 3 1 0 1 2
0 0 0 0 0 0 0 0 0 0 0 0 0 0 1 3 3 3 4 6 7 7 7 8 8 9 9 9 9 10 10 10 9 9 7 7 7 6 5 3 1 0 0 1
0 0 0 0 0 0 0 0 0 0 0 0 0 1 1 3 3 3 4 7 7 6 6 6 5 5 6 7 7 8 9 9 8 6 5 5 5 4 2 1 1 0 0 0
0 0 0 0 0 0 0 0 0 0 0 0 0 1 2 3 3 4 5 7 8 6 5 5 4 4 4 5 6 6 6 7 6 4 3 3 2 2 1 0 0 0 0 0
0 0 0 0 0 0 0 0 0 0 0 0 0 1 3 3 3 4 5 7 8 6 5 4 2 3 3 5 6 5 4 5 4 2 2 1 1 1 0 0 0 0 0 0
0 0 0 0 0 0 0 0 0 0 0 0 0 1 2 3 3 3 4 6 7 5 3 2 1 1 2 4 5 4 3 3 3 1 0 0 0 1 0 0 0 0 0 0
0 0 0 0 0 0 0 0 0 0 0 0 0 0 1 3 3 3 3 4 4 3 2 1 0 0 1 3 3 3 3 3 3 1 0 0 0 1 0 0 0 0 0 0
0 0 0 0 0 0 0 0 0 0 0 0 0 0 1 2 3 3 3 2 2 2 1 0 0 0 1 2 3 3 3 3 2 1 0 0 0 0 0 0 0 0 0 0
0 0 0 0 0 0 0 0 0 0 0 0 0 0 1 2 2 2 2 1 0 0 0 1 1 1 1 2 3 3 3 2 1 1 0 0 0 0 0 0 0 0 0 0
0 0 0 0 0 0 0 0 0 0 0 0 0 0 0 1 1 1 1 0 0 0 0 1 1 1 1 1 2 2 1 1 0 0 0 0 0 0 0 0 0 0 0 0
0 0 0 0 0 0 0 0 0 0 0 0 0 0 0 1 1 1 0 0 0 0 0 1 1 0 1 1 1 1 0 0 0 0 0 0 0 0 0 0 0 0 0 0
0 0 0 0 0 0 0 0 0 0 0 0 0 0 0 1 1 1 0 0 0 0 0 0 1 1 2 2 1 0 0 0 0 0 0 0 0 0 0 0 0 0 0 0
0 0 0 0 0 0 0 0 0 0 0 0 0 1 0 0 0 0 0 0 0 0 0 0 1 2 3 3 2 1 0 0 0 0 0 0 0 0 0 0 0 0 0 0
0 0 0 0 0 0 0 0 0 0 1 0 0 0 0 0 0 0 0 0 0 0 0 0 1 2 3 3 2 1 0 0 0 0 0 0 0 0 0 0 0 0 0 0
0 0 0 0 0 0 0 0 0 0 0 0 0 0 0 0 0 0 0 0 0 0 0 0 0 1 3 3 1 0 0 0 0 0 0 0 0 0 0 0 0 0 0 0
0 0 0 0 0 0 0 0 0 0 0 0 0 0 0 0 0 0 0 0 0 0 0 0 0 1 2 2 1 0 0 0 0 0 0 0 0 0 0 0 0 0 0 0
0 0 0 0 0 0 0 0 0 0 0 0 0 0 0 0 0 0 0 0 0 0 0 0 0 0 1 1 1 0 0 0 0 0 0 0 0 0 0 0 0 0 0 0
0 0 0 0 0 0 0 0 0 0 0 0 0 0 0 0 0 0 0 0 0 0 0 0 0 0 1 1 0 0 0 0 0 0 0 0 0 0 0 0 0 0 0 0
0 0 0 0 1 1 1 0 0 0 0 0 0 0 0 0 0 0 0 0 0 0 0 0 0 1 1 1 0 0 0 0 0 0 0 0 0 0 0 0 0 0 0 0
0 0 0 0 1 1 1 0 0 1 0 0 0 0 0 0 0 0 0 0 0 0 0 0 0 1 1 1 0 0 0 0 0 0 0 0 0 0 0 0 0 0 0 0
0 0 0 0 0 1 1 0 0 1 0 0 0 0 0 0 0 0 0 0 0 0 0 0 0 0 1 0 0 0 1 1 1 0 0 0 0 0 0 0 0 0 0 0

GEFSCGP_con_probscp_252.txt.gz
Probability
0 0 0 0 0 0 0 0 0 0 0 0 0 1 2 4 5 6 6 6 7 8 8 6 6 9 11 10 6 2 1 1 2 4 4 3 1 0 0 1 0 1 2 2
0 0 0 0 0 0 0 0 0 0 0 0 0 1 3 3 4 6 6 6 6 7 7 5 4 6 8 8 6 4 3 4 5 5 7 6 4 2 1 1 0 0 1 1
0 0 0 0 0 0 0 0 0 0 0 0 0 2 3 3 4 5 4 5 6 6 6 5 3 3 4 4 4 5 6 8 9 9 10 11 9 6 4 2 0 0 1 1
0 0 0 0 0 0 0 0 0 0 0 0 0 1 2 3 4 4 4 5 6 6 5 4 2 2 2 2 3 6 8 10 11 12 13 13 12 10 6 3 1 1 2 2
0 0 0 0 0 0 0 0 0 0 0 0 0 0 1 3 4 4 5 6 6 6 4 2 1 1 1 1 3 7 9 10 12 13 13 13 13 10 6 3 3 3 3 3
0 0 0 0 0 0 0 0 0 0 0 0 0 0 1 2 3 4 4 5 6 5 3 1 0 0 0 1 4 7 9 9 10 11 12 12 12 8 4 3 2 2 2 2
0 0 0 0 0 0 0 0 0 0 0 0 0 0 1 2 3 3 3 4 5 5 3 2 1 0 0 1 4 7 8 7 8 9 9 9 8 5 3 1 1 1 1 1
0 0 0 0 0 0 0 0 0 0 0 0 0 0 1 1 3 3 3 3 4 4 2 2 2 1 1 2 4 6 7 6 7 7 6 5 4 2 1 0 0 0 0 0
0 0 0 0 0 0 0 0 0 0 0 0 0 0 1 1 2 3 3 3 3 2 1 1 2 1 1 3 4 5 6 6 6 5 4 3 2 1 0 0 0 0 0 0
0 0 0 0 0 0 0 0 0 0 0 0 0 0 0 1 2 3 3 3 3 1 0 1 2 1 1 2 3 4 4 5 5 4 3 3 2 1 0 0 0 0 0 0
0 0 0 0 0 0 0 0 0 0 0 0 0 0 0 1 2 3 3 3 2 1 1 1 2 1 0 1 2 3 3 4 4 3 3 3 2 1 0 0 0 0 0 0
0 0 0 0 0 0 0 0 0 0 0 0 0 0 0 1 3 3 3 3 2 1 1 2 2 1 0 1 2 3 3 3 3 3 3 3 3 1 0 0 0 0 0 0
0 0 0 0 0 0 0 0 0 0 0 0 0 0 0 2 3 3 3 3 1 0 1 2 3 2 1 1 2 3 3 3 3 3 3 3 3 2 1 0 0 0 0 0
0 0 0 0 0 0 0 0 0 0 0 0 0 0 0 1 3 3 3 2 1 0 0 1 3 2 1 0 1 2 2 3 3 3 3 3 3 2 1 0 0 0 0 0
0 0 0 0 0 0 0 0 0 0 0 0 0 0 0 1 2 3 3 1 0 0 0 1 2 2 1 0 0 1 1 1 2 2 2 2 1 1 1 0 0 0 0 0
0 0 0 0 0 0 0 0 0 0 0 0 0 0 0 1 2 3 2 1 0 0 0 0 1 1 1 0 0 0 0 0 1 1 1 1 0 0 0 0 0 0 0 0
0 0 0 0 0 0 0 0 0 0 0 0 0 0 0 1 2 3 1 0 0 0 0 0 0 0 0 0 0 0 0 0 0 0 0 0 0 0 0 0 0 0 0 0
0 0 0 0 0 0 0 0 0 0 0 0 0 0 0 1 2 2 1 0 0 0 0 0 0 0 0 0 0 0 0 0 0 0 0 0 0 0 0 0 0 0 0 0
0 0 0 0 0 0 0 0 0 0 0 0 0 0 0 0 1 1 0 0 0 0 0 0 0 0 0 0 0 0 0 0 0 0 0 0 0 0 0 0 0 0 0 0
0 0 0 0 0 0 0 0 0 0 0 0 0 0 0 0 0 0 0 0 0 0 0 0 0 0 0 0 0 0 0 0 0 0 0 0 0 0 0 0 0 0 0 0
0 0 0 0 0 0 0 0 0 0 0 0 0 0 0 0 0 0 0 0 0 0 0 0 0 0 0 0 0 0 0 0 0 0 0 0 0 0 0 0 0 0 0 0
0 0 0 0 0 0 0 0 0 0 0 0 0 0 0 0 0 0 0 0 0 0 0 0 0 0 0 0 0 0 0 0 0 0 0 0 0 0 0 0 0 0 0 0
0 0 0 0 0 0 0 0 0 0 0 0 0 0 0 0 0 0 0 0 0 0 0 0 0 1 1 0 1 1 1 0 0 0 0 0 0 0 0 0 0 0 0 0
0 0 0 0 0 0 0 0 0 0 0 0 0 0 0 0 0 0 0 0 0 0 0 0 0 1 1 0 1 1 1 0 0 0 0 0 0 0 0 0 0 0 0 0
0 0 0 0 0 0 0 0 0 0 0 0 0 0 0 0 0 0 0 0 0 0 0 0 0 1 1 0 0 0 0 0 0 0 0 0 0 0 0 0 0 0 0 0
0 0 0 0 0 0 0 0 0 0 0 0 0 0 0 0 0 0 0 0 0 0 0 0 0 0 0 0 0 0 0 0 0 0 0 0 0 0 0 0 0 0 0 0